Regional Weather Roundup
Issued by NWS Burlington, VT

Current Version | Previous Version | Graphics & Text | Print | Product List | Glossary Off
Versions: 1 2 3 4 5 6 7 8 9 10 11 12 13 14 15 16 17 18 19 20 21 22 23 24 25 26 27 28 29 30 31 32 33 34 35 36 37 38 39 40 41 42 43 44 45 46 47 48 49 50

437
ASUS41 KBTV 290110
RWRBTV
VERMONT REGIONAL WEATHER ROUNDUP
NATIONAL WEATHER SERVICE BURLINGTON VT
900 PM EDT THU JUL 28 2016

NOTE: "FAIR" INDICATES FEW OR NO CLOUDS BELOW 12,000 FEET WITH NO
SIGNIFICANT WEATHER AND/OR OBSTRUCTIONS TO VISIBILITY.

* THESE REPORTS ARE NOT UNDER NWS QUALITY CONTROL AND/OR DO NOT
  REPORT WEATHER SUCH AS PRECIPITATION AND FOG.

VTZ001>019-290200-
_____VERMONT_____


CITY           SKY/WX    TMP DP  RH WIND       PRES   REMARKS
BURLINGTON     MOCLDY    72  66  81 NE3       29.90S
MONTPELIER     FAIR      66  64  93 CALM      29.97R
MORRISVILLE    FOG       66  64  93 CALM      29.94R VSB 1/2
ST. JOHNSBURY*   N/A     69  65  86 MISG      29.91R
LYNDONVILLE*   FAIR      66  64  92 W3        29.95S
MIDDLEBURY*    FAIR      69  69 100 CALM      29.90S
RUTLAND*       FAIR      71  69  93 CALM      29.91F
SPRINGFIELD    FAIR      73  66  78 NW3       29.89F
HIGHGATE*      FAIR      69  67  93 CALM      29.90R
NEWPORT*       FAIR      67  66  97 SW3       29.94R
BENNINGTON     FAIR      68  66  93 NW3       29.90S FOG
SUTTON*          N/A     63 N/A N/A MISG        N/A

_____LAKE CHAMPLAIN_____


CITY           SKY/WX    TMP DP  RH WIND       PRES   REMARKS
BURTON ISLAND*   N/A     72  68  88 SE6         N/A
COLCHESTER RF*   N/A     73  68  83 W1          N/A
DIAMOND ISL*     N/A     72  66  83 NW5         N/A

$$

NYZ007-026>031-035-052-083-087-290200-
_____NORTHERN NEW YORK_____


CITY           SKY/WX    TMP DP  RH WIND       PRES   REMARKS
PLATTSBURGH    FOG       68  67  96 CALM      29.89S VSB 3/4
SARANAC LAKE   CLOUDY    66  64  93 CALM      29.94S
MASSENA        CLOUDY    72  66  81 CALM      29.90S
OGDENSBURG*    PTCLDY    72  64  78 CALM      29.90R
POTSDAM*       PTCLDY    70  68  94 CALM      29.91R
WATERTOWN      CLOUDY    73  65  75 E3        29.88S
ALBANY         CLOUDY    79  66  64 N6        29.86S
GLENS FALLS    CLOUDY    71  66  84 N7        29.89R

$$
NHZ002-005-011-290200-
_____NEW HAMPSHIRE_____


CITY           SKY/WX    TMP DP  RH WIND       PRES   REMARKS
LEBANON        CLOUDY    71  66  84 CALM      29.89S
KEENE          CLOUDY    77  66  68 CALM      29.88R
MT WASHINGTON  PTCLDY    52  50  93 W25         N/A
PLYMOUTH       FAIR      71  68  89 CALM      29.89S
WHITEFIELD     CLOUDY    71  66  84 CALM      29.93R

$$

_____REGIONAL QUEBEC LOCATIONS_____


CITY           SKY/WX    TMP DP  RH WIND       PRES   REMARKS
MONTREAL       MOCLDY    79  57  47 W14       29.88R
QUEBEC CITY    PTCLDY    70  59  68 W3        29.88R
SHERBROOKE     CLOUDY    68  63  83 N3        29.91S

_____REGIONAL ONTARIO LOCATIONS_____


CITY           SKY/WX    TMP DP  RH WIND       PRES   REMARKS
OTTAWA         MOCLDY    73  59  60 NE5       29.91R

______KEY______
VSB  - VISIBILITY IN MILES
WCI  - WIND CHILL INDEX
HX   - HEAT INDEX
$$
NNNN




USA.gov is the U.S. government's official web portal to all federal, state and local government web resources and services.